Location: Cerezo de Arriba
(41.2389°N, 3.5585°W)
Time: 04:32:06
(UTC+00:00)

Meteor PRIRODA - Pass Details

Date: 19 May 2025
Orbit: 356 x 366 km, 97.5° (Epoch: 23 June)

Event Time Altitude Azimuth Distance (km) Brightness Sun altitude
Rises 09:48:53 0° 3° (N) 2,265 6.8 53.1°
Reaches altitude 10° 09:50:56 10° 354° (N) 1,404 5.8 53.5°
Drops below altitude 10° 09:56:25 10° 220° (SW) 1,384 5.9 54.4°
Enters shadow 10:25:18 -62° 192° (SSW) 11,609 10.1 59.1°
Exits shadow 10:58:26 -50° 29° (NNE) 10,205 9.8 63.7°
Maximum altitude 20:13:21 36° 73° (ENE) 626 3.8 -7.8°
